Concord, NH

12:32 PM EDT on May 20, 2018 (GMT -0400)
Concord Municipal

Weather History for KCON - July, 2013

Change the Weather History Date:

Monday, July 29, 2013

  Actual Average Record
Temperature  
Mean Temperature 73 °F 70 °F  
Max Temperature 84 °F 83 °F 96 °F (2015)
Min Temperature 61 °F 58 °F 43 °F (1978)
Degree Days  
Heating Degree Days 0 0  
Month to date heating degree days 2 13  
Since 1 June heating degree days 74 98  
Since 1 July heating degree days 2 13  
Cooling Degree Days 8 6  
Month to date cooling degree days 260 164  
Year to date cooling degree days 390 266  
Since 1 June cooling degree days 369 248  
Growing Degree Days 24 (Base 50)    
Moisture  
Dew Point 66 °F    
Average Humidity 78    
Maximum Humidity 100    
Minimum Humidity 55    
Precipitation  
Precipitation 0.01 in 0.13 in 2.44 in (1921)
Month to date precipitation 6.70 3.49  
Year to date precipitation 26.24 22.84  
Snow  
Snow 0.00 in 0.00 in 0.00 in (2002)
Month to date snowfall 0.0 0.0  
Since 1 June snowfall 0.0 0.0  
Since 1 July snowfall 0.0 0.0  
Snow Depth 0.00 in    
Sea Level Pressure  
Sea Level Pressure 30.01 in    
Wind  
Wind Speed 3 mph (ESE)    
Max Wind Speed 14 mph    
Max Gust Speed 22 mph    
Visibility 7 miles    
Events Rain , Thunderstorm    
T = Trace of Precipitation, MM = Missing Value Source: NWS Daily Summary

Daily Weather History Graph

Daily Weather History Graph

Search for Another Location

Airport or City:

Astronomy

Jul. 29, 2013 Rise Set
Actual Time 5:33 AM EDT 8:10 PM EDT
Civil Twilight 5:00 AM EDT 8:43 PM EDT
Nautical Twilight 4:19 AM EDT 9:24 PM EDT
Astronomical Twilight 3:32 AM EDT 10:10 PM EDT
Moon 11:52 PM EDT (7/29) 1:26 PM EDT (7/29)
Length of Visible Light 15h 42m
Length of Day
14h 37m
Waning Gibbous, 51% of the Moon is Illuminated
Jul 29
Waning Gibbous
Jul 29
Last Quarter
Aug 6
New
Aug 14
First Quarter
Aug 20
Full

Hourly Weather History & Observations

Time (EDT) Temp. Heat Index Dew Point Humidity Pressure Visibility Wind Dir Wind Speed Gust Speed Precip Events Conditions
12:51 AM 64.0 °F - 64.0 °F 100% 30.01 in 4.0 mi ENE 3.5 mph - N/A   Overcast
1:51 AM 64.0 °F - 64.0 °F 100% 30.00 in 8.0 mi East 3.5 mph - N/A   Overcast
2:04 AM 64.4 °F - 64.4 °F 100% 30.01 in 8.0 mi Calm Calm - N/A   Overcast
2:51 AM 64.0 °F - 64.0 °F 100% 30.01 in 7.0 mi Calm Calm - N/A   Overcast
3:31 AM 64.4 °F - 64.4 °F 100% 29.99 in 1.8 mi ESE 3.5 mph - N/A   Overcast
3:42 AM 64.4 °F - 64.4 °F 100% 30.00 in 2.5 mi Calm Calm - N/A   Overcast
3:49 AM 64.4 °F - 64.4 °F 100% 30.00 in 3.0 mi Calm Calm - N/A   Overcast
3:51 AM 64.0 °F - 64.0 °F 100% 30.00 in 3.0 mi Calm Calm - N/A   Overcast
4:02 AM 64.4 °F - 64.4 °F 100% 30.00 in 2.5 mi Calm Calm - N/A   Overcast
4:51 AM 64.0 °F - 64.0 °F 100% 30.01 in 1.8 mi Calm Calm - N/A   Overcast
4:58 AM 64.4 °F - 64.4 °F 100% 30.01 in 2.0 mi Calm Calm - N/A   Overcast
5:05 AM 64.4 °F - 64.4 °F 100% 30.01 in 1.8 mi ESE 3.5 mph - N/A   Overcast
5:12 AM 64.4 °F - 64.4 °F 100% 30.01 in 2.5 mi Calm Calm - N/A   Overcast
5:19 AM 64.4 °F - 64.4 °F 100% 30.01 in 6.0 mi Calm Calm - N/A   Overcast
5:34 AM 64.4 °F - 64.4 °F 100% 30.01 in 9.0 mi Calm Calm - N/A   Overcast
5:51 AM 64.0 °F - 64.0 °F 100% 30.01 in 9.0 mi ESE 3.5 mph - N/A   Overcast
6:51 AM 64.9 °F - 64.9 °F 100% 30.01 in 4.0 mi Calm Calm - N/A   Overcast
7:51 AM 64.9 °F - 64.9 °F 100% 30.02 in 4.0 mi East 3.5 mph - N/A   Overcast
8:51 AM 66.9 °F - 66.0 °F 97% 30.03 in 5.0 mi SSE 3.5 mph - N/A   Overcast
9:37 AM 68.0 °F - 66.2 °F 94% 30.03 in 7.0 mi SSE 3.5 mph - N/A   Overcast
9:51 AM 68.0 °F - 66.9 °F 96% 30.04 in 7.0 mi SSE 3.5 mph - N/A   Overcast
10:51 AM 70.0 °F - 66.9 °F 90% 30.04 in 9.0 mi ESE 4.6 mph - N/A   Overcast
11:28 AM 73.4 °F - 68.0 °F 83% 30.03 in 10.0 mi Variable 3.5 mph - N/A   Overcast
11:36 AM 73.4 °F - 66.2 °F 78% 30.03 in 10.0 mi Variable 3.5 mph - N/A   Mostly Cloudy
11:51 AM 75.0 °F - 66.9 °F 76% 30.02 in 10.0 mi Calm Calm - N/A   Mostly Cloudy
12:48 PM 75.2 °F - 66.2 °F 73% 30.01 in 10.0 mi Calm Calm - N/A   Scattered Clouds
12:51 PM 77.0 °F - 66.0 °F 69% 30.01 in 10.0 mi Calm Calm - N/A   Scattered Clouds
1:51 PM 75.0 °F - 69.1 °F 82% 30.00 in 7.0 mi East 3.5 mph - 0.01 in Rain Light Rain
2:51 PM 80.1 °F 82.3 °F 66.9 °F 64% 29.98 in 10.0 mi ENE 3.5 mph - 0.00 in   Scattered Clouds
3:51 PM 84.0 °F 86.5 °F 66.9 °F 56% 29.96 in 10.0 mi South 8.1 mph - N/A   Partly Cloudy
4:51 PM 79.0 °F - 70.0 °F 74% 29.95 in 10.0 mi SE 6.9 mph - N/A   Mostly Cloudy
5:44 PM 75.2 °F - 69.8 °F 83% 29.94 in 10.0 mi SE 4.6 mph - N/A Thunderstorm Thunderstorm
5:51 PM 75.9 °F - 71.1 °F 85% 29.95 in 10.0 mi SSE 10.4 mph - N/A Thunderstorm Thunderstorm
6:42 PM 75.2 °F - 64.4 °F 69% 29.98 in 10.0 mi Calm Calm - N/A   Mostly Cloudy
6:51 PM 75.0 °F - 64.0 °F 69% 29.98 in 10.0 mi SE 5.8 mph - N/A   Mostly Cloudy
7:51 PM 70.0 °F - 66.0 °F 87% 30.01 in 10.0 mi ENE 5.8 mph - N/A   Partly Cloudy
8:51 PM 70.0 °F - 66.0 °F 87% 30.04 in 10.0 mi NNW 3.5 mph - N/A   Mostly Cloudy
9:51 PM 66.9 °F - 64.9 °F 93% 30.05 in 10.0 mi Calm Calm - N/A   Clear
10:51 PM 64.9 °F - 64.0 °F 97% 30.05 in 10.0 mi Calm Calm - N/A   Clear
11:51 PM 63.0 °F - 63.0 °F 100% 30.06 in 10.0 mi Calm Calm - N/A   Clear